| time (UTC) | temp F | wind direction | speed knots | gust knots | rain 1hr in | rain 24hr in | rain mn in | humidity % | barometer mb |
| 20260506155116 | 53 | 291 | 0.9 | 3.5 | 0.00 | 0.00 | 0.00 | 48 | 1012.9 |
| 20260506152329 | 53 | 42 | 0.9 | 3.5 | 0.00 | 0.00 | 0.00 | 46 | 1013.2 |
| 20260506150826 | 51 | 320 | 0.9 | 1.7 | 0.00 | 0.00 | 0.00 | 53 | 1013.0 |
| 20260506145322 | 50 | 21 | 0.0 | 1.7 | 0.00 | 0.00 | 0.00 | 59 | 1012.9 |
| 20260506143821 | 50 | 255 | 0.9 | 3.5 | 0.00 | 0.00 | 0.00 | 61 | 1012.4 |
| 20260506142319 | 51 | 280 | 1.7 | 7.8 | 0.00 | 0.00 | 0.00 | 62 | 1012.6 |
| 20260506140818 | 52 | 287 | 0.9 | 1.7 | 0.00 | 0.00 | 0.00 | 63 | 1012.3 |
| 20260506135314 | 51 | 257 | 1.7 | 3.5 | 0.00 | 0.00 | 0.00 | 64 | 1012.1 |
| 20260506133810 | 49 | 280 | 0.0 | 0.9 | 0.00 | 0.00 | 0.00 | 68 | 1012.3 |
| 20260506132307 | 51 | 308 | 0.9 | 0.9 | 0.00 | 0.00 | 0.00 | 66 | 1012.0 |
| 20260506130803 | 51 | 241 | 0.9 | 1.7 | 0.00 | 0.00 | 0.00 | 67 | 1011.8 |
| 20260506125305 | 48 | 312 | 0.9 | 1.7 | 0.00 | 0.00 | 0.00 | 71 | 1011.7 |
| 20260506123800 | 48 | 296 | 0.9 | 2.6 | 0.00 | 0.00 | 0.00 | 71 | 1011.3 |
| 20260506122258 | 46 | 252 | 0.9 | 1.7 | 0.00 | 0.00 | 0.00 | 74 | 1011.4 |
| 20260506120756 | 45 | 325 | 0.0 | 1.7 | 0.00 | 0.00 | 0.00 | 75 | 1011.1 |
| 20260506115255 | 45 | 345 | 0.0 | 2.6 | 0.00 | 0.00 | 0.00 | 74 | 1011.2 |
| 20260506113754 | 45 | 272 | 0.0 | 0.9 | 0.00 | 0.00 | 0.00 | 74 | 1011.1 |
| 20260506112251 | 44 | 36 | 0.0 | 1.7 | 0.00 | 0.00 | 0.00 | 74 | 1010.8 |
| 20260506110749 | 44 | 314 | 0.0 | 1.7 | 0.00 | 0.00 | 0.00 | 72 | 1010.3 |
| 20260506105245 | 45 | 303 | 0.0 | 0.0 | 0.00 | 0.00 | 0.00 | 70 | 1010.4 |
| 20260506103744 | 45 | 258 | 0.9 | 1.7 | 0.00 | 0.00 | 0.00 | 68 | 1010.2 |
| 20260506102242 | 46 | 306 | 0.9 | 5.2 | 0.00 | 0.00 | 0.00 | 66 | 1009.9 |
| 20260506100739 | 46 | 291 | 0.0 | 1.7 | 0.00 | 0.00 | 0.00 | 66 | 1010.0 |
| 20260506095237 | 46 | 264 | 0.0 | 0.9 | 0.00 | 0.00 | 0.00 | 65 | 1009.8 |
| 20260506093737 | 46 | 261 | 0.0 | 0.0 | 0.00 | 0.00 | 0.00 | 65 | 1009.5 |
| 20260506092235 | 46 | 252 | 0.0 | 1.7 | 0.00 | 0.00 | 0.00 | 63 | 1009.7 |
| 20260506090733 | 46 | 261 | 0.0 | 2.6 | 0.00 | 0.00 | 0.00 | 62 | 1009.3 |
| 20260506085228 | 46 | 280 | 0.0 | 0.9 | 0.00 | 0.00 | 0.00 | 62 | 1009.1 |
| 20260506083724 | 47 | 283 | 0.0 | 1.7 | 0.00 | 0.00 | 0.00 | 61 | 1009.6 |
| 20260506082220 | 47 | 345 | 0.0 | 1.7 | 0.00 | 0.00 | 0.00 | 61 | 1009.3 |
| 20260506080719 | 47 | 249 | 0.9 | 2.6 | 0.00 | 0.00 | 0.00 | 59 | 1009.2 |
| 20260506072211 | 47 | 324 | 0.0 | 2.6 | 0.00 | 0.00 | 0.00 | 59 | 1009.2 |
| 20260506070709 | 47 | 252 | 0.9 | 0.9 | 0.00 | 0.00 | 0.00 | 58 | 1009.2 |
| 20260506062200 | 48 | 300 | 0.0 | 2.6 | 0.00 | 0.00 | 0.00 | 57 | 1009.4 |
| 20260506060658 | 48 | 225 | 0.9 | 1.7 | 0.00 | 0.00 | 0.00 | 57 | 1009.6 |
| 20260506050649 | 48 | 284 | 0.0 | 0.0 | 0.00 | 0.00 | 0.00 | 58 | 1009.6 |
| 20260506043642 | 49 | 270 | 0.0 | 2.6 | 0.00 | 0.00 | 0.00 | 55 | 1009.2 |
| 20260506042143 | 49 | 205 | 0.0 | 0.9 | 0.00 | 0.00 | 0.00 | 56 | 1009.4 |
| 20260506040641 | 49 | 241 | 0.0 | 0.0 | 0.00 | 0.00 | 0.00 | 57 | 1009.3 |
| 20260506035137 | 49 | 238 | 0.0 | 0.0 | 0.00 | 0.16 | 0.16 | 58 | 1009.2 |
| 20260506033634 | 49 | 239 | 0.0 | 0.0 | 0.00 | 0.16 | 0.16 | 55 | 1009.4 |
| 20260506032131 | 49 | 252 | 1.7 | 1.7 | 0.00 | 0.16 | 0.16 | 54 | 1009.4 |
| 20260506030629 | 49 | 255 | 0.9 | 0.9 | 0.00 | 0.16 | 0.16 | 54 | 1009.6 |
| 20260506025124 | 50 | 279 | 0.0 | 1.7 | 0.00 | 0.16 | 0.16 | 53 | 1009.4 |
| 20260506023621 | 49 | 235 | 0.0 | 0.9 | 0.00 | 0.16 | 0.16 | 53 | 1009.7 |
| 20260506022118 | 50 | 269 | 1.7 | 1.7 | 0.00 | 0.16 | 0.16 | 52 | 1009.5 |
| 20260506020616 | 50 | 257 | 0.0 | 0.9 | 0.00 | 0.16 | 0.16 | 53 | 1009.6 |
| 20260506015113 | 50 | 320 | 0.9 | 1.7 | 0.00 | 0.16 | 0.16 | 50 | 1009.3 |
| 20260506013611 | 50 | 265 | 0.0 | 1.7 | 0.00 | 0.16 | 0.16 | 49 | 1009.1 |
| 20260506012106 | 50 | 288 | 0.9 | 2.6 | 0.00 | 0.16 | 0.16 | 48 | 1009.0 |
| 20260506010605 | 51 | 268 | 0.0 | 1.7 | 0.00 | 0.16 | 0.16 | 49 | 1009.0 |
| 20260506005101 | 51 | 266 | 1.7 | 1.7 | 0.00 | 0.16 | 0.16 | 46 | 1009.0 |
| 20260506003557 | 52 | 274 | 1.7 | 2.6 | 0.00 | 0.16 | 0.16 | 47 | 1009.1 |
| 20260506002056 | 52 | 254 | 0.0 | 1.7 | 0.00 | 0.16 | 0.16 | 48 | 1009.0 |
| 20260506000553 | 52 | 271 | 1.7 | 1.7 | 0.00 | 0.16 | 0.16 | 54 | 1008.6 |
| 20260505235051 | 52 | 271 | 0.0 | 1.7 | 0.00 | 0.16 | 0.16 | 53 | 1008.4 |
| 20260505233548 | 52 | 169 | 0.0 | 2.6 | 0.00 | 0.16 | 0.16 | 53 | 1008.4 |
| 20260505232046 | 53 | 288 | 1.7 | 2.6 | 0.00 | 0.16 | 0.16 | 52 | 1008.2 |
| 20260505230544 | 53 | 268 | 3.5 | 5.2 | 0.00 | 0.16 | 0.16 | 51 | 1008.3 |
| 20260505225039 | 54 | 302 | 1.7 | 2.6 | 0.00 | 0.16 | 0.16 | 50 | 1008.4 |
| 20260505223536 | 54 | 263 | 0.9 | 2.6 | 0.00 | 0.16 | 0.16 | 52 | 1008.4 |
| 20260505222036 | 54 | 293 | 0.9 | 2.6 | 0.00 | 0.16 | 0.16 | 58 | 1008.2 |
| 20260505220533 | 55 | 311 | 0.9 | 5.2 | 0.00 | 0.16 | 0.16 | 58 | 1008.5 |
| 20260505215032 | 55 | 256 | 0.0 | 0.0 | 0.00 | 0.16 | 0.16 | 65 | 1008.4 |
| 20260505213530 | 55 | 216 | 0.0 | 3.5 | 0.00 | 0.16 | 0.16 | 68 | 1008.2 |
| 20260505212026 | 55 | 223 | 0.9 | 0.9 | 0.00 | 0.16 | 0.16 | 70 | 1008.3 |
| 20260505210522 | 54 | 300 | 0.9 | 2.6 | 0.00 | 0.16 | 0.16 | 70 | 1008.2 |
| 20260505205020 | 53 | 203 | 1.7 | 2.6 | 0.00 | 0.16 | 0.16 | 72 | 1008.4 |
| 20260505203517 | 53 | 291 | 0.9 | 2.6 | 0.00 | 0.16 | 0.16 | 73 | 1008.5 |
| 20260505202012 | 53 | 220 | 0.0 | 0.9 | 0.00 | 0.16 | 0.16 | 76 | 1008.5 |
| 20260505200510 | 53 | 279 | 1.7 | 2.6 | 0.00 | 0.16 | 0.16 | 75 | 1008.6 |
| 20260505195007 | 53 | 39 | 0.0 | 3.5 | 0.00 | 0.16 | 0.16 | 77 | 1008.6 |
| 20260505193502 | 52 | 195 | 0.0 | 0.9 | 0.00 | 0.16 | 0.16 | 78 | 1008.6 |
| 20260505192000 | 52 | 279 | 0.0 | 1.7 | 0.00 | 0.16 | 0.16 | 79 | 1008.8 |
| 20260505190456 | 51 | 217 | 0.9 | 0.9 | 0.00 | 0.16 | 0.16 | 80 | 1008.8 |
| 20260505184951 | 51 | 224 | 2.6 | 2.6 | 0.00 | 0.16 | 0.16 | 80 | 1008.9 |
| 20260505183448 | 52 | 218 | 0.9 | 5.2 | 0.00 | 0.16 | 0.16 | 82 | 1008.5 |
| 20260505181943 | 50 | 225 | 1.7 | 6.1 | 0.00 | 0.16 | 0.16 | 84 | 1008.4 |
| 20260505180440 | 51 | 259 | 0.0 | 1.7 | 0.00 | 0.16 | 0.16 | 85 | 1008.2 |
| 20260505174936 | 50 | 205 | 0.9 | 1.7 | 0.00 | 0.16 | 0.16 | 88 | 1007.9 |
| 20260505173432 | 49 | 203 | 0.9 | 2.6 | 0.00 | 0.16 | 0.16 | 89 | 1008.0 |
| 20260505171932 | 49 | 243 | 0.9 | 2.6 | 0.00 | 0.16 | 0.16 | 89 | 1007.9 |
| 20260505170428 | 50 | 225 | 1.7 | 1.7 | 0.07 | 0.16 | 0.16 | 90 | 1007.9 |
| 20260505164927 | 49 | 203 | 0.9 | 2.6 | 0.00 | 0.14 | 0.14 | 89 | 1008.1 |
| 20260505163427 | 50 | 236 | 0.9 | 3.5 | 0.07 | 0.14 | 0.14 | 87 | 1008.4 |
| 20260505161924 | 51 | 221 | 1.7 | 2.6 | 0.12 | 0.12 | 0.12 | 83 | 1008.6 |
| 20260505160422 | 53 | 153 | 2.6 | 3.5 | 0.00 | 0.09 | 0.09 | 75 | 1008.2 |